Wind_Speed
12 12 10 10 10 11 12 12 13 13 15 15 16 17 17 19 20 22 24 26 29 29 29 29 30 32 32 33 34 34 34 34 34 35 36 35 35 34 34 33 34 34 33 33
13 12 12 11 11 11 12 13 12 13 13 15 16 17 18 19 20 21 23 24 27 28 28 29 29 29 30 31 32 34 33 33 34 35 36 36 35 34 34 35 34 35 35 35
13 13 13 13 12 12 12 13 13 13 14 15 16 17 19 20 20 21 22 24 25 26 27 28 28 28 29 30 31 32 32 32 33 34 36 36 36 36 35 35 35 36 36 36
13 13 13 13 12 13 13 13 13 13 14 14 16 17 17 19 20 21 22 24 24 25 26 27 27 28 29 30 31 32 32 33 34 35 36 37 37 38 37 37 37 37 38 38
13 13 13 13 13 13 12 13 13 13 13 13 14 16 16 17 20 21 22 24 25 25 26 26 27 28 29 30 31 32 32 32 33 34 35 36 37 38 38 39 39 39 38 39
15 14 14 14 13 13 13 13 13 13 13 13 12 14 15 16 18 20 21 23 24 25 25 26 27 28 29 29 30 31 32 32 33 34 35 36 37 38 38 39 39 39 39 39
16 15 15 14 14 13 13 13 13 13 13 13 13 14 15 15 17 18 19 21 23 24 24 25 25 26 27 28 29 30 31 32 33 33 34 35 36 37 37 38 39 39 39 39
16 16 15 15 15 15 14 14 14 15 15 15 14 15 15 15 16 18 19 20 21 22 23 24 24 25 26 27 28 30 31 31 32 33 34 35 36 36 36 37 38 39 40 40
17 17 16 16 16 16 16 16 16 16 17 17 16 15 15 15 16 18 19 21 21 23 23 24 25 25 26 28 29 30 31 32 32 33 34 35 35 35 36 36 37 38 39 41
19 18 18 17 18 17 17 17 17 18 19 18 17 16 16 16 17 18 20 21 23 23 24 25 26 27 28 29 29 30 31 32 32 33 33 34 35 35 36 36 37 38 39 41
20 20 19 19 19 19 18 18 18 18 19 20 19 17 17 17 18 19 20 22 23 24 25 27 28 29 30 31 31 31 31 31 32 33 34 35 36 36 37 38 39 39 39 40
21 21 20 20 20 20 20 19 19 20 20 20 20 18 18 19 19 20 21 22 24 25 26 27 29 30 30 31 31 31 32 32 33 34 35 36 37 37 37 38 38 39 39 41
23 23 22 22 22 21 21 21 21 21 21 21 20 19 19 21 21 22 22 23 24 25 26 27 28 30 30 31 31 32 33 34 34 35 36 37 37 37 37 37 38 39 40 41
25 25 24 24 24 23 23 23 23 23 23 22 21 20 20 21 23 23 24 24 25 26 27 28 29 29 30 31 32 33 34 35 35 36 37 37 37 38 38 38 39 40 41 42
27 26 26 26 26 25 25 24 24 25 24 25 22 22 21 23 24 25 25 25 26 27 28 28 29 30 31 32 33 34 35 35 36 36 37 37 38 39 39 40 40 41 42 42
29 29 28 28 27 27 27 25 25 26 26 26 25 24 24 24 25 26 27 27 27 28 29 29 30 30 31 33 33 34 35 36 36 36 37 38 38 39 40 41 41 41 42 43
31 31 30 29 29 30 29 27 27 27 27 27 27 27 27 27 26 27 28 29 29 29 30 31 31 32 33 33 34 35 36 36 37 37 38 38 39 40 41 41 41 42 42 43
33 33 33 32 32 33 30 29 29 29 29 29 29 29 29 29 29 29 29 30 30 31 32 32 33 33 34 34 35 36 37 37 38 38 39 39 40 41 41 42 42 42 42 42
34 34 34 34 34 35 32 31 31 31 30 30 30 30 30 30 29 29 30 31 31 32 33 33 34 34 35 36 36 37 38 38 39 40 40 40 40 41 41 42 42 41 41 41
36 35 35 35 36 36 34 33 33 33 32 31 31 31 31 31 31 30 31 31 32 33 34 34 35 35 36 37 37 38 38 39 40 40 40 40 40 40 40 40 40 40 40 40
36 37 37 36 36 36 34 34 33 34 33 33 33 33 33 33 32 32 32 32 33 34 35 35 35 36 37 37 37 38 38 39 39 39 39 39 40 40 40 40 40 40 39 40
38 38 38 38 38 36 35 34 34 35 35 35 34 34 34 34 34 33 33 34 34 35 36 36 37 37 37 38 38 38 38 39 39 39 39 39 39 39 39 39 39 40 40 40
39 39 39 39 38 37 36 36 36 36 36 36 36 35 35 35 35 35 35 35 36 36 37 38 38 38 38 38 38 38 38 39 39 38 39 39 38 38 38 38 38 39 39 39
39 39 40 39 39 38 37 37 37 38 37 37 37 37 37 37 37 37 36 36 37 37 37 37 38 38 38 38 38 38 38 39 39 38 38 38 38 38 38 38 38 38 38 37
40 40 40 40 39 39 38 39 39 39 39 39 38 38 38 38 38 37 37 37 37 37 37 38 38 38 38 38 38 39 39 39 39 38 38 37 37 37 37 37 37 37 37 37
40 40 40 39 39 40 40 40 40 39 39 39 39 39 38 38 38 38 37 37 37 37 38 38 38 38 38 38 38 39 39 39 39 38 38 37 37 37 37 37 36 36 36 36
Wind_Direction
333 331 322 311 298 288 287 284 277 273 267 261 257 253 246 248 245 239 236 233 233 234 235 236 237 238 238 238 240 243 245 247 247 249 250 252 254 255 257 258 259 259 260 261
330 329 324 316 304 294 290 287 281 274 269 262 259 253 247 245 245 243 239 236 235 235 237 239 242 240 240 241 241 242 245 248 250 250 251 253 256 258 259 259 260 261 262 264
327 327 324 319 310 300 294 288 282 280 274 263 260 256 251 248 247 244 240 239 238 240 239 238 240 241 241 242 244 246 249 251 253 253 253 255 258 260 261 261 261 262 264 265
326 326 323 320 315 307 299 293 288 284 280 267 261 257 252 250 247 244 241 240 239 242 243 242 242 244 244 246 248 250 252 254 256 256 256 257 259 260 261 262 262 262 264 265
323 324 323 321 317 311 306 301 297 291 285 274 266 262 255 251 247 245 243 241 240 241 243 245 245 245 247 249 250 252 254 256 257 256 257 258 259 260 261 261 262 263 264 265
316 317 318 319 315 312 308 304 299 294 288 280 273 268 262 256 251 248 244 241 240 240 243 246 248 248 249 251 252 253 255 257 258 258 259 260 262 262 263 263 262 263 265 266
312 312 312 314 313 310 307 304 301 297 291 288 281 274 270 263 255 251 248 244 242 242 244 247 250 251 251 253 254 256 258 259 259 259 261 262 263 264 264 264 264 264 265 266
308 309 308 309 309 309 307 305 301 298 295 293 287 279 275 269 260 253 250 248 247 247 249 251 253 253 253 255 257 258 260 261 261 261 263 264 265 265 265 265 265 265 265 267
305 304 303 302 304 305 304 301 299 296 296 295 290 282 275 270 262 256 253 251 250 251 252 254 256 257 258 259 261 261 263 264 264 264 265 266 266 267 267 267 267 267 266 267
302 302 302 300 300 301 299 299 295 294 294 294 291 286 278 271 266 258 254 254 253 253 255 257 259 261 262 263 264 265 266 267 266 266 266 267 268 269 269 269 270 270 270 270
301 301 302 300 299 298 298 296 295 291 290 291 290 287 280 274 268 262 258 255 255 256 258 259 260 261 263 265 266 267 268 268 268 269 269 269 270 270 271 271 272 272 273 272
300 299 298 297 294 294 294 293 292 290 287 287 287 287 282 277 271 266 263 261 260 259 261 262 263 263 265 266 267 268 269 270 271 271 271 271 272 272 273 273 273 274 274 274
298 297 296 294 292 290 291 291 289 286 284 284 285 287 282 278 273 269 267 266 265 265 264 264 264 265 265 266 268 269 270 271 272 272 273 273 273 273 274 274 275 275 275 276
294 294 293 291 290 289 288 287 286 283 282 283 284 285 280 277 274 272 271 270 268 267 267 266 266 266 267 267 269 269 271 272 273 274 274 274 273 274 274 276 277 277 277 278
291 292 290 289 288 287 287 287 285 283 283 281 282 281 278 275 272 272 271 270 270 269 270 270 271 271 270 270 270 271 272 273 274 274 274 274 274 274 275 276 277 278 278 279
289 290 288 286 285 285 285 287 285 284 283 283 280 279 277 275 274 272 272 271 271 271 271 271 272 273 272 272 272 273 274 275 276 276 275 275 275 274 274 276 277 278 279 280
288 288 286 284 284 284 284 285 285 285 284 282 281 279 278 277 276 275 274 272 271 272 272 272 273 273 274 274 274 274 275 276 277 277 276 275 275 275 275 276 277 278 279 280
285 286 285 284 284 283 285 285 285 284 282 282 280 279 279 277 276 276 275 274 274 273 273 273 273 273 275 276 276 277 277 277 277 277 276 275 275 275 275 276 277 278 279 280
283 284 284 284 283 284 284 284 284 284 282 281 280 279 278 278 277 276 276 275 275 275 273 273 274 274 275 276 278 278 278 277 277 277 277 276 276 276 276 277 278 278 278 278
280 281 282 283 283 284 285 285 284 284 283 282 281 280 280 279 278 277 277 277 275 275 275 274 275 276 275 276 277 278 278 278 278 278 278 278 278 277 278 278 277 278 278 279
278 279 280 281 281 282 283 283 283 282 283 282 281 281 281 280 280 279 278 278 278 278 277 277 277 277 277 278 278 279 279 279 279 279 279 280 280 278 278 278 277 277 278 279
278 278 278 278 279 281 281 281 280 280 281 281 281 281 281 281 281 281 280 280 279 279 279 278 279 279 279 279 279 279 279 280 280 280 280 281 280 279 279 278 278 278 279 279
276 276 276 276 278 278 278 278 278 279 280 280 280 281 282 281 281 281 281 281 280 280 280 279 279 279 279 280 280 279 279 280 281 281 281 281 281 280 280 279 279 279 279 280
275 274 274 275 276 276 275 275 276 278 278 279 280 281 281 281 281 281 281 280 280 280 280 280 279 279 280 280 279 278 279 280 281 282 281 281 281 281 280 280 279 279 279 279
274 274 274 274 274 272 272 273 274 276 278 279 280 281 281 280 280 280 280 280 279 279 280 280 279 279 280 280 280 279 279 280 282 282 282 281 281 281 281 280 280 280 279 279
274 274 273 273 272 272 272 273 275 276 277 278 279 279 279 279 279 280 280 280 280 280 279 279 279 279 279 279 280 280 280 280 281 281 280 280 281 282 282 281 280 279 279 279
Height
5732 5731 5728 5726 5725 5724 5722 5721 5721 5720 5719 5719 5719 5720 5721 5722 5723 5724 5726 5728 5731 5733 5736 5739 5742 5745 5748 5750 5752 5755 5758 5760 5762 5763 5765 5766 5768 5769 5769 5770 5770 5771 5771 5771
5732 5729 5727 5724 5723 5721 5720 5719 5718 5717 5716 5716 5716 5717 5718 5719 5720 5721 5722 5724 5726 5729 5732 5734 5737 5740 5742 5744 5746 5749 5751 5753 5754 5756 5757 5759 5760 5760 5761 5762 5762 5763 5763 5763
5731 5729 5725 5723 5721 5719 5718 5716 5715 5714 5714 5713 5713 5714 5715 5715 5716 5717 5718 5719 5721 5724 5727 5729 5731 5734 5736 5738 5740 5742 5744 5746 5747 5748 5749 5750 5752 5752 5753 5753 5754 5755 5755 5754
5729 5726 5724 5721 5719 5717 5716 5714 5713 5711 5711 5710 5711 5710 5711 5711 5712 5713 5714 5715 5717 5719 5721 5723 5726 5728 5730 5732 5734 5736 5737 5738 5739 5740 5741 5742 5743 5744 5744 5745 5745 5745 5746 5745
5727 5724 5722 5720 5718 5715 5713 5712 5710 5709 5708 5707 5707 5706 5708 5707 5708 5709 5710 5711 5712 5714 5716 5718 5719 5722 5724 5725 5727 5728 5729 5731 5732 5732 5733 5734 5734 5735 5735 5735 5736 5736 5736 5736
5725 5722 5720 5718 5716 5713 5711 5710 5708 5706 5705 5705 5704 5703 5704 5704 5704 5705 5706 5706 5708 5709 5711 5712 5714 5715 5717 5719 5720 5721 5722 5723 5724 5724 5724 5725 5725 5726 5726 5726 5726 5726 5726 5727
5723 5720 5718 5716 5713 5711 5709 5708 5706 5704 5703 5702 5701 5700 5700 5700 5700 5700 5701 5702 5703 5704 5706 5707 5708 5710 5711 5712 5713 5714 5715 5715 5716 5716 5716 5716 5716 5716 5716 5716 5717 5717 5717 5717
5719 5718 5715 5713 5711 5709 5706 5705 5704 5702 5700 5699 5697 5696 5697 5696 5695 5695 5696 5697 5698 5699 5700 5701 5702 5704 5705 5706 5706 5707 5707 5707 5707 5708 5707 5707 5707 5707 5707 5707 5707 5707 5707 5707
5716 5714 5712 5709 5707 5705 5703 5701 5700 5698 5696 5695 5693 5693 5692 5691 5691 5691 5692 5693 5693 5694 5695 5696 5697 5697 5698 5699 5699 5699 5700 5699 5699 5699 5699 5699 5698 5698 5698 5698 5697 5697 5697 5697
5712 5710 5708 5705 5703 5701 5700 5698 5696 5694 5691 5690 5689 5689 5688 5687 5686 5687 5687 5687 5688 5688 5689 5690 5690 5691 5691 5692 5692 5692 5692 5691 5691 5691 5690 5690 5689 5689 5688 5688 5687 5687 5686 5686
5707 5705 5704 5701 5699 5697 5695 5694 5691 5689 5687 5686 5684 5687 5683 5682 5681 5681 5681 5681 5681 5682 5682 5683 5683 5683 5684 5684 5684 5683 5683 5683 5682 5682 5682 5681 5681 5680 5679 5678 5677 5677 5676 5675
5702 5700 5698 5696 5694 5691 5690 5688 5686 5685 5683 5681 5679 5682 5678 5676 5675 5675 5675 5675 5675 5675 5675 5675 5675 5675 5675 5675 5675 5675 5674 5674 5674 5673 5673 5672 5671 5670 5670 5669 5667 5666 5665 5664
5696 5694 5693 5691 5690 5687 5685 5683 5681 5679 5677 5675 5674 5677 5672 5671 5670 5669 5668 5668 5668 5668 5668 5667 5667 5667 5667 5667 5666 5666 5665 5665 5665 5664 5663 5662 5661 5660 5660 5658 5657 5656 5655 5653
5689 5688 5687 5685 5682 5680 5678 5677 5675 5672 5671 5670 5669 5668 5667 5664 5663 5662 5662 5661 5661 5661 5660 5660 5659 5659 5658 5658 5657 5657 5656 5656 5655 5654 5653 5652 5651 5650 5649 5648 5647 5645 5644 5642
5682 5681 5679 5677 5675 5673 5671 5670 5668 5666 5664 5663 5663 5661 5660 5657 5656 5655 5654 5654 5653 5653 5652 5652 5651 5650 5649 5649 5648 5648 5647 5646 5645 5644 5643 5642 5641 5639 5638 5637 5635 5634 5632 5630
5674 5673 5671 5670 5668 5665 5663 5662 5660 5659 5657 5655 5654 5654 5652 5650 5649 5648 5647 5646 5645 5644 5644 5643 5643 5642 5641 5640 5639 5638 5637 5636 5635 5634 5632 5631 5630 5628 5627 5626 5624 5622 5620 5618
5666 5664 5663 5661 5659 5657 5656 5656 5653 5651 5649 5648 5646 5646 5643 5642 5641 5640 5639 5638 5637 5636 5635 5634 5634 5632 5631 5630 5629 5628 5627 5626 5624 5623 5622 5620 5619 5617 5615 5614 5612 5610 5608 5606
5657 5655 5652 5651 5650 5648 5651 5647 5644 5642 5641 5639 5637 5636 5635 5634 5632 5631 5630 5629 5628 5627 5626 5625 5624 5623 5622 5620 5619 5618 5616 5615 5613 5612 5610 5609 5607 5605 5604 5602 5600 5598 5596 5594
5647 5645 5643 5641 5639 5638 5640 5637 5634 5632 5632 5630 5628 5627 5625 5624 5623 5622 5620 5619 5618 5616 5615 5614 5613 5612 5611 5609 5608 5607 5605 5603 5602 5600 5598 5597 5595 5593 5592 5590 5588 5585 5583 5581
5637 5635 5634 5631 5628 5628 5630 5627 5624 5623 5621 5621 5618 5617 5616 5614 5613 5613 5611 5609 5608 5606 5605 5603 5602 5601 5600 5598 5597 5595 5593 5591 5590 5588 5586 5584 5582 5581 5579 5577 5575 5573 5571 5569
5626 5624 5623 5620 5617 5618 5618 5616 5614 5613 5613 5610 5608 5607 5605 5604 5603 5602 5600 5598 5596 5595 5594 5592 5591 5590 5588 5587 5585 5584 5582 5580 5578 5576 5574 5572 5570 5568 5566 5565 5563 5561 5559 5557
5614 5612 5611 5609 5607 5610 5607 5605 5604 5602 5600 5599 5597 5596 5595 5593 5592 5590 5589 5587 5585 5584 5582 5581 5579 5578 5576 5574 5573 5572 5570 5568 5566 5564 5562 5560 5558 5556 5554 5552 5551 5549 5547 5545
5602 5601 5599 5598 5599 5597 5595 5593 5592 5590 5589 5588 5586 5585 5584 5582 5581 5579 5577 5576 5574 5572 5571 5569 5567 5566 5565 5562 5561 5559 5558 5556 5554 5552 5550 5548 5546 5544 5542 5540 5538 5537 5535 5533
5589 5587 5586 5585 5586 5585 5583 5581 5580 5579 5577 5576 5575 5574 5572 5571 5569 5567 5566 5564 5562 5560 5559 5557 5555 5554 5553 5551 5549 5547 5545 5544 5542 5540 5538 5536 5534 5533 5531 5529 5527 5525 5523 5521
5576 5574 5572 5572 5573 5571 5571 5569 5568 5567 5566 5564 5563 5562 5560 5558 5557 5555 5554 5552 5550 5549 5547 5545 5544 5542 5541 5539 5537 5535 5533 5531 5530 5528 5526 5524 5523 5521 5519 5517 5515 5513 5512 5510
5563 5562 5560 5560 5559 5557 5558 5557 5555 5554 5554 5552 5551 5550 5548 5546 5544 5543 5542 5540 5538 5537 5535 5533 5532 5531 5529 5527 5525 5523 5521 5519 5518 5516 5514 5513 5511 5509 5507 5505 5504 5502 5500 5499